www.pogodaiklimat.ru
ПОГОДА в Мозес Лейк
Время
и дата
09:52 05.02
10:52 05.02
11:42 05.02
11:52 05.02
12:52 05.02
13:52 05.02
14:14 05.02
14:48 05.02
14:52 05.02
15:05 05.02
15:15 05.02
15:52 05.02
16:52 05.02
17:52 05.02
18:52 05.02
19:52 05.02
20:52 05.02
21:52 05.02
22:23 05.02
22:25 05.02
22:29 05.02
22:52 05.02
23:44 05.02
23:52 05.02
00:18 06.02
00:34 06.02
00:44 06.02
00:48 06.02
00:52 06.02
01:52 06.02
02:52 06.02
03:52 06.02
04:52 06.02
05:52 06.02
06:52 06.02
07:52 06.02
08:52 06.02
09:52 06.02
10:52 06.02
11:52 06.02
12:52 06.02
13:52 06.02
14:52 06.02
15:52 06.02
16:52 06.02
17:52 06.02
18:52 06.02
19:52 06.02
Ветер
(напр.,м/с)
Видим. Явления Облачность Т
(С)
Тd
(С)
f
(%)
Тe
(С)
Тes
(С)
Комфортность P
(гПа)
Po
(гПа)
Тmin
(С)
Tmax
(С)
R
(мм)
R24
(мм)
S
(см)
штиль 0 10 км слабый дождь, дымка 10/10 1170 m
[Ns]
+3.3 +2.2 92 +2 +2 1008.6 965.3 +1.7 +3.3 3.3
СЗ 3 16 км 10/10 1440 м +4.4 +3.3 93 +1 +1 1009.3 965.9
З 4 16 км слабый дождь 10/10 210 m
[Ns]
+4.4 +3.3 93 0 0 966.2
З 3 16 км слабый дождь 10/10 180 m
[Ns]
+4.4 +3.3 93 +1 +1 1009.7 966.2
ЮЗ 3 16 км 10/10 330 м +5.0 +3.9 93 +1 +1 1009.6 966.2 1.0
ЮЗ 3 16 км 10/10 330 м +5.6 +3.3 85 +2 +2 1010.3 966.9
ЮЗ 3 16 км 8/8 270 м +5.6 +3.9 89 +2 +3 967.2
Ю 3 16 км 8/5 240 m
[Ac]
+6.0 +3.0 81 +3 +4 967.5
ЮЗ 3 16 км 10/5 270 m
[Ac]
+5.6 +3.3 85 +2 +3 1011.1 967.5
Ю 3 16 км 10/8 300 m
[Ac]
+5.6 +3.3 85 +2 +2 967.9
ЮЗ 3 16 км 10/8 210 m
[Ac]
+5.6 +3.3 85 +2 +2 967.9
Ю 4 16 км 8/2 240 m
[Ac]
+5.0 +3.3 89 +1 +1 1011.9 968.5 +3.3 +5.6 1.0
ЮВ 3 16 км 10/0 3000 m
[Ac]
+3.9 +2.8 93 0 0 1012.6 969.2
Ю 3 16 км 10/0 3300 m
[Ac]
+3.3 +2.2 92 -1 -1 1013.3 969.8
Ю 2 16 км 8/0 3600 m
[Ac]
+3.3 +2.2 92 0 0 1014.2 970.5
штиль 0 14 км 2/0 3300 m
[Ac]
+2.2 +1.1 92 +1 +1 1015.0 971.1
ЮВ 2 11 км ясно +1.7 +0.6 92 -2 -2 1015.9 972.1
ЮЗ 2 16 км ясно +1.7 +0.6 92 -2 -2 1017.0 973.0 +0.6 +5.0
ЮЗ 2 4 км дымка 2/2 60 м +0.6 0.0 96 -3 -3 973.7
З 2 2 км дымка ?/? 0.0 0.0 100 -4 -4 973.7
штиль 0 400 м туман ?/? 0.0 -0.6 96 -1 -1 973.7
С 2 400 м туман ?/? 0.0 -1.1 92 -4 -4 1017.9 974.0
штиль 0 800 м переохлажденный туман ?/? -1.1 -1.7 96 -2 -2 975.0
С 2 2 км дымка 8/8 30 м -1.7 -2.2 96 -6 -6 1018.9 975.0
штиль 0 800 м переохлажденный туман ?/? -1.7 -2.2 96 -3 -3 975.3
Ю 2 3 км дымка 8/8 30 м -1.7 -2.8 92 -6 -6 975.6
Ю 2 2 км дымка ?/? -1.7 -2.2 96 -6 -6 975.6
Ю 2 3 км дымка 5/5 30 м -2.0 -2.0 100 -6 -6 975.6
Ю 2 6 км дымка 5/5 30 м -1.7 -2.2 96 -6 -6 1019.9 976.0
штиль 0 16 км ясно -2.2 -3.3 92 -3 -3 1020.9 976.9
штиль 0 16 км ясно -2.2 -2.8 96 -4 -4 1022.1 977.9
штиль 0 16 км ясно -1.1 -2.2 92 -2 -2 1022.7 978.6 -2.8 +1.7 4.3
штиль 0 16 км 2/0 3600 m
[Ac]
-1.1 -2.2 92 -2 -2 1023.3 979.2
штиль 0 16 км ясно -1.1 -1.7 96 -2 -2 1024.2 979.9
штиль 0 16 км ясно 0.0 -1.1 92 -1 -1 1025.0 980.5
штиль 0 16 км 8/0 3300 m
[Ac]
+1.1 -0.6 88 0 0 1025.6 981.2
Ю 3 16 км 8/0 3600 m
[Ac]
+4.4 -0.6 70 +1 +1 1025.7 981.5
Ю 3 16 км ясно +5.6 +0.6 70 +3 +4 1026.3 982.1 -1.7 +5.6
ЮЗ 4 16 км ясно +6.1 +1.7 73 +2 +5 1026.8 982.5
ЮЗ 4 16 км ясно +7.2 +1.1 65 +4 +7 1026.6 982.1
ЮЗ 4 16 км 5/0 3600 m
[Ac]
+7.2 +1.1 65 +4 +6 1025.7 981.5
ЮЗ 3 16 км 8/0 3600 m
[Ac]
+7.2 +1.7 68 +5 +6 1026.0 981.8
ЮЗ 4 16 км ясно +7.2 +1.1 65 +4 +6 1026.4 982.1
Ю 4 16 км ясно +7.2 +0.6 63 +4 +5 1026.2 982.1 +4.4 +7.8
Ю 5 16 км ясно +7.2 0.0 60 +4 +4 1026.0 981.8
Ю 4 16 км ясно +5.0 0.0 70 +1 +1 1026.0 981.5
Ю 4 16 км ясно +6.1 0.0 65 +3 +3 1025.7 981.5
ЮЗ 3 16 км ясно +6.1 0.0 65 +3 +3 1025.9 981.8
Местоположение метеостанции Grant County Airport: широта 47.1931 долгота -119.3133 высота над уровнем моря 361 м.
В архиве по умолчанию представлена погода в Мозес Лейк за последние 1-2 суток. Обновление информации о фактической погоде в базе происходит ежечасно! Архивные данные за месяц целиком и за предыдущие месяцы Вы можете получить, выбрав интересующий диапазон дат из раскрывающегося списка и нажав кнопку "Ввод!".
Внимание! Архив погоды МЕТАР в базе сайта по станциям, не включенным в климатический монитор, хранится не более 60 дней. Нет смысла пытаться выбрать более раннюю дату.
*Определитесь, кто Вы:
Внимание! Время в таблицах - местное (без учета летнего времени). Для получения всемирного времени необходимо вычесть поправку, которая равна -8 ч.
Смотрите также архив погоды в соседних городах и на ближайших метеорологических станциях:
Партнеры нашего сайта:      
Пояснения к столбцам:
  • Ветер - указаны скорость ветра в м/с - средняя за 10 мин, порывы в срок и между сроками (в фигурных скобках) и направление, откуда дует ветер: С - северный,
  • СВ - северо-восточный, В - восточный, ЮВ - юго-восточный, Ю - южный, ЮЗ - юго-западный, З - западный, СЗ - северо-западный.
  • Видимость - горизонтальная дальность видимости в метрах или километрах. При видимости от 1 до 10 км при отсутствии осадков обычно наблюдается дымка, при ухудшении видимости до 1 км и менее - туман. В сухую погоду видимость может ухудшаться дымом, пылью или мглою.
  • Явления - указаны атмосферные явления, наблюдавшиеся в срок или в последний час перед сроком; фигурными скобками обозначены явления, наблюдавшиеся между сроками (за 1-3 часа до срока); квадратными скобками обозначены град или гололедные отложения с указанием их диаметра в мм.
  • Облачность - указаны через наклонную черту общая и нижняя облачность в баллах и высота нижней границы облаков в метрах; квадратными скобками обозначены формы облаков: Ci - перистые, Cs - перисто-слоистые, Cc - перисто-кучевые, Ac - высококучевые, As - высокослоистые, Sc - слоисто-кучевые, Ns - слоисто-дождевые, Cu - кучевые, Cb - кучево-дождевые. Подробнее классификацию облаков см. в Атласе облаков (PDF).
  • T - Температура воздуха - температура, измеренная на высоте 2 м над землей.
  • Td - Температура точки росы - температура, при понижении до которой содержащийся в воздухе водяной пар достигнет насыщения.
  • f - Относительная влажность воздуха - влажноcть воздуха, измеренная на высоте 2 м над землей.
  • Te - Эффективная температура - температура, которую ощущает одетый по сезону человек в тени. Характеристика душности погоды. При расчете учитывается влияние влажности воздуха и скорости ветра на теплоощущения человека.
  • Tes - Эффективная температура на солнце - температура, которую ощущает человек, с поправкой на солнечный нагрев. Характеристика знойности погоды. Зависит от высоты солнца над горизонтом, облачности и скорости ветра. Ночью, в пасмурную погоду, а также при ветре 12 м/с и более поправка равна нулю.
  • P - Атмосферное давление - приведенное к уровню моря атмосферное давление.
  • Po - Атмосферное давление - измеренное на уровне метеостанции атмосферное давление.
  • Tmin - Минимальная температура - минимум температуры воздуха на высоте 2 м над землей.
  • Tmax - Максимальная температура - максимум температуры воздуха на высоте 2 м над землей.
  • R - Количество осадков - Количество выпавших осадков за период времени, мм. При наведении курсора мыши на число - период времени, за который выпало указанное количество осадков.
  • R24 - Количество осадков - Количество выпавших осадков за 24 часа, мм.
  • S - Снежный покров - Высота снежного покрова, см. При наведении курсора мыши на число - состояние снежного покрова и степень покрытия местности в баллах.